[[{"header":{"parameterUnit":"m.s-1","parameterCategory":1,"la1":30.2992,"la2":30.254,"lo1":-89.0895,"lo2":-89.0443,"dy":0.0025,"dx":0.0025,"nx":19,"ny":19,"refTime":"2026-05-16T21:00:00:Z","depth":0,"parameterNumber":2,"parameterNumberName":"U-component_of_WINDS"},"data":[0,0,0,-2.4674,-2.4675,-2.4731,-2.4731,-2.4816,-2.4816,0,0,0,0,0,0,0,0,0,0,0,-2.4665,-2.4666,-2.4673,-2.4675,-2.4731,-2.4731,-2.4815,-2.4816,0,0,0,0,0,0,0,0,0,0,0,-2.4665,-2.4666,-2.4667,-2.4675,-2.4731,-2.4731,-2.4815,-2.4768,0,0,0,0,0,0,0,0,0,0,-2.4712,-2.4712,-2.4665,-2.4667,-2.4676,-2.4731,-2.4731,-2.4766,-2.4771,-2.4796,0,-2.482,0,-2.482,-2.4823,-2.4823,0,0,0,-2.4669,-2.4708,-2.4715,-2.4667,-2.4676,-2.473,-2.4704,-2.4769,-2.4775,-2.4803,-2.4821,-2.4824,-2.4821,-2.4824,-2.4824,-2.4986,-2.4987,0,0,-2.4666,-2.4679,-2.4711,-2.472,-2.4712,-2.4702,-2.4706,-2.4772,-2.4793,-2.4821,-2.4826,-2.4822,-2.4824,-2.4825,-2.4985,-2.4986,0,0,0,-2.4661,-2.4678,-2.4683,-2.4717,-2.4726,-2.4704,-2.4708,-2.479,-2.479,-2.4826,-2.4823,-2.4825,-2.4826,-2.4983,-2.4985,-2.5048,0,0,0,-2.4659,-2.4675,-2.4682,-2.4691,-2.4725,-2.4758,-2.4724,-2.4786,-2.4793,-2.4823,-2.4825,-2.4827,-2.4982,-2.4984,-2.5044,-2.5076,0,0,0,-2.4659,-2.4674,-2.4685,-2.4692,-2.4716,-2.4757,-2.4761,-2.4787,-2.4791,-2.4823,-2.4827,-2.4981,-2.4984,-2.504,-2.507,-2.5122,0,0,0,-2.4662,-2.4741,-2.4687,-2.4774,-2.4716,-2.4796,-2.4761,-2.482,-2.4855,-2.4825,-2.4982,-2.4985,-2.5039,-2.5066,-2.5118,-2.5169,-2.5191,0,0,-2.4769,-2.4755,-2.4805,-2.4757,-2.485,-2.4786,-2.4889,-2.4908,-2.4899,-2.4957,-2.4961,-2.5046,-2.507,-2.5121,-2.5311,-2.5329,0,0,0,-2.4843,-2.4879,-2.4901,-2.4935,-2.4952,-2.4969,-2.4971,-2.4978,-2.5027,-2.4932,-2.5078,-2.5092,-2.5122,-2.5146,-2.5161,-2.5185,-2.4996,-2.4996,-2.4996,-2.5014,-2.4998,-2.508,-2.5071,-2.5104,-2.5106,-2.5131,-2.5141,-2.5116,-2.5151,-2.5168,-2.5285,-2.5313,-2.5324,-2.535,-2.5193,-2.5193,-2.5194,-2.5194,-2.5169,-2.5218,-2.5182,-2.5248,-2.5231,-2.5287,-2.5292,-2.5272,-2.5321,-2.527,-2.5296,-2.5242,-2.5344,-2.5366,-2.5198,-2.5198,-2.5197,-2.5197,-2.5196,-2.5279,-2.53,-2.5307,-2.5354,-2.5392,-2.538,-2.5429,-2.5412,-2.5396,-2.5421,-2.5437,-2.5436,-2.5433,-2.543,-2.5431,-2.5431,-2.5431,-2.5432,-2.5432,-2.539,-2.5396,-2.544,-2.5464,-2.5483,-2.5506,-2.5509,-2.5528,-2.5544,-2.5527,-2.5527,-2.5498,-2.5357,-2.5321,-2.5438,-2.5437,-2.5436,-2.5436,-2.5435,-2.5554,-2.5514,-2.5581,-2.56,-2.5627,-2.5666,-2.5643,-2.5682,-2.5695,-2.572,-2.5686,-2.5584,-2.5568,-2.5556,-2.5526,-2.5689,-2.5689,-2.5689,-2.5689,-2.5647,-2.5636,-2.5701,-2.5733,-2.5762,-2.5748,-2.5824,-2.5827,-2.5824,-2.5831,-2.5805,-2.5765,-2.5753,-2.5744,-2.5727,-2.57,-2.5903,-2.5903,-2.5903,-2.5746,-2.5738,-2.5806,-2.5802,-2.5821,-2.5839,-2.591,-2.5949,-2.5937,-2.5912,-2.5836,-2.5827,-2.5762,-2.5741,-2.5715,-2.569,-2.5639,0,0]},{"header":{"parameterUnit":"m.s-1","parameterCategory":1,"la1":30.2992,"la2":30.254,"lo1":-89.0895,"lo2":-89.0443,"dy":0.0025,"dx":0.0025,"nx":19,"ny":19,"refTime":"2026-05-16T21:00:00:Z","depth":0,"parameterNumber":3,"parameterNumberName":"V-component_of_WINDS"},"data":[0,0,0,3.4825,3.4826,3.4848,3.4848,3.4892,3.4892,0,0,0,0,0,0,0,0,0,0,0,3.4829,3.4829,3.4825,3.4826,3.4848,3.4848,3.4892,3.4892,0,0,0,0,0,0,0,0,0,0,0,3.4828,3.4829,3.483,3.4826,3.4848,3.4848,3.4892,3.4869,0,0,0,0,0,0,0,0,0,0,3.4845,3.4858,3.4829,3.483,3.4826,3.4848,3.4848,3.4868,3.4871,3.4889,0,3.4908,0,3.4901,3.4896,3.4897,0,0,0,3.4818,3.4856,3.4853,3.483,3.4826,3.4848,3.4836,3.4869,3.4872,3.4892,3.4908,3.491,3.4902,3.4897,3.4897,3.5026,3.5027,0,0,3.4817,3.4838,3.4851,3.4856,3.4854,3.4835,3.4837,3.4871,3.489,3.4909,3.491,3.4902,3.4897,3.4898,3.5025,3.5026,0,0,0,3.4819,3.4838,3.4833,3.4854,3.4857,3.4836,3.4838,3.4888,3.4885,3.4911,3.4903,3.4898,3.4898,3.5024,3.5026,3.5092,0,0,0,3.4817,3.4838,3.4833,3.4846,3.4857,3.4873,3.4855,3.4883,3.4886,3.4903,3.4898,3.4899,3.5023,3.5025,3.5088,3.512,0,0,0,3.4824,3.4839,3.4846,3.4847,3.4858,3.4872,3.4871,3.4883,3.4881,3.4897,3.4899,3.5022,3.5025,3.5084,3.5114,3.5158,0,0,0,3.4836,3.4906,3.4847,3.4922,3.4858,3.4914,3.487,3.4911,3.4932,3.4898,3.5023,3.5026,3.5083,3.511,3.5155,3.5198,3.5219,0,0,3.4936,3.4919,3.4961,3.4909,3.4981,3.4909,3.499,3.499,3.4972,3.5009,3.5012,3.5089,3.5113,3.5157,3.5331,3.5348,0,0,0,3.5,3.503,3.5044,3.5065,3.5067,3.5069,3.5054,3.5054,3.5084,3.4996,3.5118,3.5132,3.5156,3.5176,3.519,3.5209,3.5036,3.5036,3.5036,3.5171,3.5144,3.5211,3.5186,3.5207,3.5189,3.5203,3.5199,3.5167,3.5196,3.5207,3.5315,3.534,3.535,3.537,3.5229,3.5229,3.523,3.523,3.5313,3.535,3.5304,3.5352,3.5323,3.5363,3.5349,3.5324,3.5356,3.5306,3.5327,3.5272,3.5369,3.5385,3.5235,3.5234,3.5233,3.5233,3.5232,3.542,3.5433,3.5431,3.5456,3.5479,3.5452,3.5484,3.5457,3.5431,3.5452,3.5458,3.5457,3.5451,3.5457,3.5458,3.5458,3.5458,3.5459,3.5459,3.5532,3.5527,3.5558,3.5563,3.5572,3.5579,3.5562,3.5569,3.557,3.5548,3.5548,3.5511,3.5384,3.5352,3.5464,3.5463,3.5463,3.5462,3.5462,3.5683,3.5644,3.5691,3.5699,3.5702,3.5725,3.569,3.5707,3.5709,3.5725,3.5684,3.5596,3.5576,3.5565,3.5538,3.5691,3.5691,3.5691,3.5691,3.5772,3.5759,3.58,3.5814,3.5826,3.5798,3.585,3.5837,3.5817,3.5816,3.579,3.5753,3.5742,3.5729,3.5714,3.5688,3.5876,3.5876,3.5876,3.5862,3.5849,3.5899,3.5878,3.5878,3.5878,3.5926,3.5944,3.5913,3.5883,3.5815,3.5807,3.5746,3.5727,3.5695,3.5672,3.5624,0,0]}]]